KF5JED-13 Weather Reports


time (UTC)temp
F
wind
direction
speed
knots
gust
knots
rain 1hr
in
rain 24hr
in
rain mn
in
humidity
%
barometer
mb
20260831225929 94 162 9.6 13.9 0.00 0.00 0.00 29 1016.7
20260831225425 93 156 9.6 16.5 0.00 0.00 0.00 29 1016.8
20260831224920 95 162 11.3 13.0 0.00 0.00 0.00 28 1016.9
20260831224420 94 149 5.2 11.3 0.00 0.00 0.00 28 1016.9
20260831223914 95 165 9.6 11.3 0.00 0.00 0.00 27 1016.8
20260831223410 95 169 7.8 13.9 0.00 0.00 0.00 28 1016.8
20260831222907 94 159 4.3 9.6 0.00 0.00 0.00 30 1016.7
20260831222402 94 157 3.5 8.7 0.00 0.00 0.00 29 1016.9
20260831221857 95 156 4.3 7.8 0.00 0.00 0.00 28 1016.8
20260831221353 95 163 13.0 13.9 0.00 0.00 0.00 28 1016.8
20260831220848 94 162 7.8 12.2 0.00 0.00 0.00 28 1017.1
20260831220343 93 154 5.2 11.3 0.00 0.00 0.00 30 1016.9
20260831215838 96 167 8.7 12.2 0.00 0.00 0.00 27 1016.9
20260831215334 94 152 9.6 11.3 0.00 0.00 0.00 28 1017.0
20260831214830 93 151 7.0 17.4 0.00 0.00 0.00 30 1017.0
20260831214328 93 125 10.4 11.3 0.00 0.00 0.00 30 1016.8
20260831213822 94 155 6.1 12.2 0.00 0.00 0.00 29 1017.0
20260831213319 94 221 6.1 13.9 0.00 0.00 0.00 28 1017.0
20260831212814 95 199 12.2 17.4 0.00 0.00 0.00 29 1016.9
20260831212310 93 161 5.2 13.0 0.00 0.00 0.00 30 1017.2
20260831211803 95 160 7.8 13.0 0.00 0.00 0.00 28 1017.5
20260831211258 93 168 10.4 11.3 0.00 0.00 0.00 29 1017.6
20260831210752 94 170 7.0 13.9 0.00 0.00 0.00 30 1017.5
20260831210249 94 132 12.2 20.9 0.00 0.00 0.00 30 1017.6
20260831205748 93 164 5.2 8.7 0.00 0.00 0.00 30 1017.7
20260831205244 94 198 8.7 13.0 0.00 0.00 0.00 29 1017.7
20260831204744 94 218 11.3 18.2 0.00 0.00 0.00 29 1017.7
20260831204244 94 155 7.8 10.4 0.00 0.00 0.00 29 1017.8
20260831203743 96 150 8.7 11.3 0.00 0.00 0.00 28 1018.0
20260831203238 94 163 11.3 15.6 0.00 0.00 0.00 30 1018.0
20260831202736 93 157 4.3 7.0 0.00 0.00 0.00 29 1018.0
20260831202231 93 146 9.6 12.2 0.00 0.00 0.00 30 1018.2
20260831201731 93 152 9.6 15.6 0.00 0.00 0.00 30 1018.4
20260831201225 94 159 3.5 8.7 0.00 0.00 0.00 30 1018.4
20260831200720 94 164 7.8 12.2 0.00 0.00 0.00 31 1018.5
20260831200214 93 143 7.8 14.8 0.00 0.00 0.00 31 1018.5
20260831195710 94 175 9.6 13.9 0.00 0.00 0.00 30 1018.5
20260831195206 93 156 8.7 13.0 0.00 0.00 0.00 29 1018.6
20260831194700 96 130 6.1 12.2 0.00 0.00 0.00 29 1018.6
20260831194155 97 165 11.3 12.2 0.00 0.00 0.00 28 1018.6
20260831193650 94 162 6.1 6.1 0.00 0.00 0.00 31 1018.6
20260831193145 95 200 4.3 8.7 0.00 0.00 0.00 29 1018.8
20260831192641 93 192 3.5 7.0 0.00 0.00 0.00 30 1018.8
20260831192136 93 128 7.0 9.6 0.00 0.00 0.00 31 1018.9
20260831191632 94 163 11.3 15.6 0.00 0.00 0.00 30 1018.7
20260831191127 95 170 7.0 11.3 0.00 0.00 0.00 31 1018.9
20260831190622 94 182 3.5 7.0 0.00 0.00 0.00 31 1018.7
20260831190120 94 183 9.6 12.2 0.00 0.00 0.00 31 1019.0
20260831185611 93 199 5.2 5.2 0.00 0.00 0.00 31 1019.1
20260831185107 95 163 7.0 13.0 0.00 0.00 0.00 30 1019.2
20260831184606 94 173 8.7 12.2 0.00 0.00 0.00 31 1019.2
20260831184101 94 199 8.7 13.9 0.00 0.00 0.00 32 1019.2
20260831183600 94 144 3.5 10.4 0.00 0.00 0.00 32 1019.2
20260831183054 93 151 4.3 11.3 0.00 0.00 0.00 33 1019.5
20260831182549 92 147 7.0 13.0 0.00 0.00 0.00 34 1019.6
20260831182044 92 167 5.2 9.6 0.00 0.00 0.00 34 1019.5
20260831181539 92 159 9.6 13.9 0.00 0.00 0.00 33 1019.4
20260831181039 92 187 4.3 13.9 0.00 0.00 0.00 34 1019.5
20260831180534 92 211 6.1 12.2 0.00 0.00 0.00 35 1019.7
20260831180029 91 221 7.0 17.4 0.00 0.00 0.00 37 1019.5
20260831175524 91 161 6.1 9.6 0.00 0.00 0.00 36 1019.8
20260831175021 90 197 7.8 18.2 0.00 0.00 0.00 36 1019.7
20260831174520 93 186 7.8 13.0 0.00 0.00 0.00 35 1019.9
20260831174015 92 183 9.6 13.9 0.00 0.00 0.00 36 1019.7
20260831173513 91 203 10.4 14.8 0.00 0.00 0.00 37 1020.0
20260831173010 89 236 12.2 13.0 0.00 0.00 0.00 39 1019.7
20260831172505 90 214 12.2 14.8 0.00 0.00 0.00 38 1019.8
20260831171959 91 213 9.6 13.0 0.00 0.00 0.00 37 1019.9
20260831171454 91 190 10.4 16.5 0.00 0.00 0.00 39 1020.0
20260831170951 90 187 7.8 12.2 0.00 0.00 0.00 39 1020.0
20260831170447 89 207 7.8 14.8 0.00 0.00 0.00 40 1020.1
20260831165939 89 207 8.7 14.8 0.00 0.00 0.00 40 1020.0
20260831165434 88 204 8.7 12.2 0.00 0.00 0.00 41 1019.9
20260831164931 88 207 9.6 14.8 0.00 0.00 0.00 41 1019.9
20260831164426 87 208 7.8 13.0 0.00 0.00 0.00 43 1020.1
20260831163921 88 214 7.8 14.8 0.00 0.00 0.00 43 1020.0
20260831163417 87 225 10.4 13.9 0.00 0.00 0.00 44 1020.1
20260831162915 86 209 11.3 14.8 0.00 0.00 0.00 45 1020.0
20260831162411 85 217 10.4 15.6 0.00 0.00 0.00 46 1020.1
20260831161909 86 211 7.8 15.6 0.00 0.00 0.00 46 1020.1
20260831161406 86 210 7.8 14.8 0.00 0.00 0.00 45 1020.0
20260831160901 86 216 11.3 13.9 0.00 0.00 0.00 46 1020.1
20260831160356 86 209 14.8 15.6 0.00 0.00 0.00 46 1020.1
20260831155851 84 213 13.0 15.6 0.00 0.00 0.00 48 1019.9
20260831155351 86 220 14.8 17.4 0.00 0.00 0.00 47 1019.9
20260831154846 84 213 12.2 18.2 0.00 0.00 0.00 49 1019.9
20260831154343 84 217 9.6 14.8 0.00 0.00 0.00 49 1019.8
20260831153841 83 213 8.7 13.0 0.00 0.00 0.00 49 1020.1
20260831153337 84 227 10.4 13.0 0.00 0.00 0.00 50 1019.7
20260831152833 83 210 10.4 18.2 0.00 0.00 0.00 50 1020.0
20260831152329 83 218 7.0 15.6 0.00 0.00 0.00 51 1019.7
20260831151824 82 233 9.6 14.8 0.00 0.00 0.00 51 1020.1
20260831151323 82 218 6.1 13.9 0.00 0.00 0.00 51 1019.8
20260831150818 82 217 8.7 14.8 0.00 0.00 0.00 51 1019.8
20260831150314 82 220 7.8 14.8 0.00 0.00 0.00 51 1019.8
20260831145812 82 217 9.6 13.0 0.00 0.00 0.00 51 1020.0
20260831145309 81 214 6.1 11.3 0.00 0.00 0.00 52 1019.9
20260831144804 80 226 8.7 10.4 0.00 0.00 0.00 53 1020.0
20260831144301 79 255 1.7 7.0 0.00 0.00 0.00 54 1019.9
20260831143800 79 218 5.2 9.6 0.00 0.00 0.00 54 1020.0
20260831143255 79 234 3.5 4.3 0.00 0.00 0.00 55 1019.9
20260831142750 78 234 3.5 4.3 0.00 0.00 0.00 55 1020.0
20260831142246 78 319 2.6 3.5 0.00 0.00 0.00 55 1019.9
20260831141746 78 249 1.7 4.3 0.00 0.00 0.00 56 1019.9
20260831141245 77 197 1.7 2.6 0.00 0.00 0.00 55 1019.7
20260831140740 77 240 0.9 2.6 0.00 0.00 0.00 56 1019.7
20260831140234 76 339 2.6 3.5 0.00 0.00 0.00 57 1019.7
20260831135732 76 323 2.6 5.2 0.00 0.00 0.00 58 1019.6
20260831135228 75 291 2.6 3.5 0.00 0.00 0.00 56 1019.6
20260831134724 75 236 1.7 5.2 0.00 0.00 0.00 58 1019.4
20260831134220 74 216 4.3 7.8 0.00 0.00 0.00 57 1019.2
20260831133719 74 207 5.2 6.1 0.00 0.00 0.00 58 1018.9
20260831133213 74 203 6.1 6.1 0.00 0.00 0.00 58 1019.0
20260831132709 73 170 3.5 4.3 0.00 0.00 0.00 59 1019.2
20260831132208 72 196 3.5 4.3 0.00 0.00 0.00 62 1019.1
20260831131702 72 172 2.6 3.5 0.00 0.00 0.00 63 1018.9
20260831131159 71 157 0.0 1.7 0.00 0.00 0.00 63 1019.0
20260831130654 71 50 0.0 1.7 0.00 0.00 0.00 65 1018.8
20260831130150 70 12 0.9 1.7 0.00 0.00 0.00 65 1019.0
20260831125648 69 30 0.0 0.9 0.00 0.00 0.00 66 1018.7
20260831125144 68 208 0.9 1.7 0.00 0.00 0.00 68 1018.5
20260831124640 68 205 1.7 2.6 0.00 0.00 0.00 69 1018.1
20260831124136 68 187 2.6 4.3 0.00 0.00 0.00 67 1018.1
20260831123635 68 218 3.5 4.3 0.00 0.00 0.00 68 1018.1
20260831123134 66 204 3.5 3.5 0.00 0.00 0.00 70 1018.0
20260831122634 66 183 3.5 3.5 0.00 0.00 0.00 71 1017.9
20260831122130 66 197 2.6 4.3 0.00 0.00 0.00 70 1017.7
20260831121629 66 154 2.6 4.3 0.00 0.00 0.00 71 1017.6
20260831121126 67 185 1.7 2.6 0.00 0.00 0.00 69 1017.7
20260831120621 68 184 1.7 5.2 0.00 0.00 0.00 67 1017.5
20260831120116 68 215 5.2 5.2 0.00 0.00 0.00 67 1017.3
20260831115612 67 203 3.5 5.2 0.00 0.00 0.00 69 1017.3
20260831115107 66 175 2.6 4.3 0.00 0.00 0.00 70 1017.2
20260831114605 66 181 2.6 4.3 0.00 0.00 0.00 70 1017.2
20260831114101 67 162 4.3 5.2 0.00 0.00 0.00 69 1017.2
20260831113600 68 161 4.3 5.2 0.00 0.00 0.00 68 1017.3
20260831113056 69 220 2.6 4.3 0.00 0.00 0.00 65 1017.0
20260831112555 70 226 3.5 5.2 0.00 0.00 0.00 63 1017.1
20260831112050 70 214 5.2 7.0 0.00 0.00 0.00 62 1017.2
20260831111546 68 207 3.5 5.2 0.00 0.00 0.00 65 1017.0
20260831111042 69 184 4.3 5.2 0.00 0.00 0.00 65 1016.9
20260831110537 68 176 5.2 5.2 0.00 0.00 0.00 65 1016.8
20260831110032 68 171 5.2 6.1 0.00 0.00 0.00 65 1016.7
20260831105525 68 183 5.2 6.1 0.00 0.00 0.00 66 1016.9
20260831105020 68 190 2.6 5.2 0.00 0.00 0.00 67 1016.9
20260831104517 67 197 3.5 4.3 0.00 0.00 0.00 67 1017.0
20260831104013 67 191 2.6 3.5 0.00 0.00 0.00 67 1017.0
20260831103513 68 178 1.7 3.5 0.00 0.00 0.00 66 1017.1
20260831103009 68 180 3.5 4.3 0.00 0.00 0.00 67 1017.1
20260831102508 67 193 2.6 4.3 0.00 0.00 0.00 67 1017.0
20260831101958 67 175 2.6 3.5 0.00 0.00 0.00 67 1017.1
20260831101453 68 191 4.3 4.3 0.00 0.00 0.00 65 1017.1
20260831100949 69 182 2.6 3.5 0.00 0.00 0.00 64 1017.1
20260831100445 71 206 4.3 4.3 0.00 0.00 0.00 59 1017.0
20260831095940 70 212 1.7 2.6 0.00 0.00 0.00 61 1017.2
20260831095439 69 210 3.5 3.5 0.00 0.00 0.00 62 1017.0
20260831094933 69 164 2.6 3.5 0.00 0.00 0.00 63 1017.0
20260831094430 70 201 2.6 4.3 0.00 0.00 0.00 60 1017.2
20260831093926 69 202 5.2 5.2 0.00 0.00 0.00 61 1017.0
20260831093421 68 188 2.6 3.5 0.00 0.00 0.00 64 1017.0
20260831092917 68 159 3.5 4.3 0.00 0.00 0.00 63 1017.2
20260831092412 69 170 2.6 2.6 0.00 0.00 0.00 61 1017.0
20260831091907 70 186 1.7 2.6 0.00 0.00 0.00 59 1017.1
20260831091402 71 236 2.6 2.6 0.00 0.00 0.00 59 1017.2
20260831090858 71 249 1.7 4.3 0.00 0.00 0.00 58 1017.2
20260831090348 71 211 5.2 7.0 0.00 0.00 0.00 56 1016.7
20260831085844 71 197 5.2 7.8 0.00 0.00 0.00 56 1016.8
20260831085338 71 204 3.5 7.8 0.00 0.00 0.00 56 1016.6
20260831084833 71 200 7.0 8.7 0.00 0.00 0.00 56 1016.7
20260831084330 71 192 6.1 7.8 0.00 0.00 0.00 57 1016.6
20260831083826 71 189 3.5 7.8 0.00 0.00 0.00 56 1016.5
20260831083321 71 180 5.2 7.0 0.00 0.00 0.00 56 1016.5
20260831082820 71 183 5.2 7.0 0.00 0.00 0.00 57 1016.6
20260831082315 71 187 5.2 7.0 0.00 0.00 0.00 56 1016.6
20260831081810 72 179 4.3 6.1 0.00 0.00 0.00 56 1016.5
20260831081305 72 170 5.2 6.1 0.00 0.00 0.00 55 1016.3
20260831080800 73 195 7.0 7.8 0.00 0.00 0.00 54 1016.5
20260831080255 73 194 6.1 8.7 0.00 0.00 0.00 54 1016.6
20260831075752 72 192 5.2 7.0 0.00 0.00 0.00 56 1016.6
20260831075247 71 172 4.3 5.2 0.00 0.00 0.00 58 1016.6
20260831074746 71 182 4.3 5.2 0.00 0.00 0.00 57 1016.7
20260831074240 72 178 4.3 5.2 0.00 0.00 0.00 56 1016.6
20260831073737 72 182 5.2 6.1 0.00 0.00 0.00 55 1016.8
20260831073235 73 181 4.3 7.0 0.00 0.00 0.00 54 1016.6
20260831072730 73 188 4.3 6.1 0.00 0.00 0.00 53 1016.8
20260831072226 75 197 3.5 7.8 0.00 0.00 0.00 52 1016.5
20260831071721 75 200 6.1 10.4 0.00 0.00 0.00 50 1016.5
20260831071215 75 205 4.3 7.8 0.00 0.00 0.00 50 1016.8
20260831070714 76 188 5.2 8.7 0.00 0.00 0.00 49 1016.6
20260831070208 76 204 6.1 11.3 0.00 0.00 0.00 49 1016.8
20260831065703 77 180 9.6 12.2 0.00 0.00 0.00 48 1016.5
20260831065201 77 185 7.0 10.4 0.00 0.00 0.00 48 1016.5
20260831064656 77 177 7.0 10.4 0.00 0.00 0.00 48 1016.6
20260831064151 77 189 7.8 10.4 0.00 0.00 0.00 47 1016.2
20260831063647 77 174 9.6 9.6 0.00 0.00 0.00 47 1016.5
20260831063143 77 174 7.0 12.2 0.00 0.00 0.00 46 1016.2
20260831062642 77 160 8.7 11.3 0.00 0.00 0.00 47 1016.3
20260831062142 76 182 6.1 8.7 0.00 0.00 0.00 48 1016.6
20260831061640 75 193 4.3 6.1 0.00 0.00 0.00 49 1016.3
20260831061136 76 194 4.3 7.8 0.00 0.00 0.00 48 1016.5
20260831060632 76 199 5.2 7.0 0.00 0.00 0.00 47 1016.5
20260831060126 76 198 6.1 7.0 0.00 0.00 0.00 47 1016.6
20260831055625 77 185 5.2 7.0 0.00 0.00 0.00 46 1016.5
20260831055121 77 168 5.2 7.8 0.00 0.00 0.00 46 1016.5
20260831054621 77 159 7.8 8.7 0.00 0.00 0.00 46 1016.3
20260831054115 77 173 6.1 9.6 0.00 0.00 0.00 45 1016.0
20260831053614 77 170 6.1 10.4 0.00 0.00 0.00 45 1016.1
20260831053108 78 166 7.0 10.4 0.00 0.00 0.00 44 1016.1
20260831052607 79 169 8.7 11.3 0.00 0.00 0.00 43 1016.2
20260831052101 79 183 7.8 11.3 0.00 0.00 0.00 42 1016.0
20260831051559 79 162 9.6 12.2 0.00 0.00 0.00 43 1016.0
20260831051059 79 171 9.6 11.3 0.00 0.00 0.00 43 1016.1
20260831050558 80 174 7.8 13.0 0.00 0.00 0.00 42 1016.1
20260831050057 79 169 7.8 11.3 0.00 0.00 0.00 42 1015.9
20260831045556 79 165 7.0 10.4 0.00 0.00 0.00 42 1016.0
20260831045052 80 167 6.1 10.4 0.00 0.00 0.00 42 1015.8
20260831044548 80 177 7.0 10.4 0.00 0.00 0.00 41 1016.0
20260831044043 80 163 9.6 12.2 0.00 0.00 0.00 41 1015.9
20260831043537 80 180 8.7 9.6 0.00 0.00 0.00 41 1015.8
20260831043032 80 177 7.0 10.4 0.00 0.00 0.00 41 1015.8
20260831042527 80 167 10.4 12.2 0.00 0.00 0.00 41 1015.9
20260831042026 80 167 7.0 11.3 0.00 0.00 0.00 41 1015.9
20260831041521 80 172 7.8 11.3 0.00 0.00 0.00 41 1015.9
20260831041016 81 161 8.7 9.6 0.00 0.00 0.00 41 1015.9
20260831040511 82 168 9.6 13.0 0.00 0.00 0.00 40 1015.7
20260831040010 82 164 9.6 13.0 0.00 0.00 0.00 40 1015.8
20260831035507 81 161 8.7 13.0 0.00 0.00 0.00 40 1015.9
20260831035002 82 169 9.6 12.2 0.00 0.00 0.00 40 1015.9
20260831034451 82 189 7.8 10.4 0.00 0.00 0.00 40 1015.9
20260831033947 82 168 9.6 11.3 0.00 0.00 0.00 40 1015.8
20260831033442 82 173 6.1 11.3 0.00 0.00 0.00 40 1015.8
20260831032937 82 163 7.0 11.3 0.00 0.00 0.00 40 1015.7
20260831032432 82 157 6.1 12.2 0.00 0.00 0.00 40 1015.7
20260831031927 82 169 7.8 10.4 0.00 0.00 0.00 40 1015.6
20260831031427 82 163 6.1 10.4 0.00 0.00 0.00 40 1015.7
20260831030921 83 163 7.8 11.3 0.00 0.00 0.00 39 1015.6
20260831030420 83 161 7.8 11.3 0.00 0.00 0.00 39 1015.7
20260831025919 84 172 9.6 12.2 0.00 0.00 0.00 38 1015.5
20260831025418 84 159 7.8 13.0 0.00 0.00 0.00 38 1015.5
20260831024914 84 157 9.6 12.2 0.00 0.00 0.00 38 1015.0
20260831024414 85 163 10.4 13.0 0.00 0.00 0.00 37 1015.5
20260831023913 85 157 9.6 13.0 0.00 0.00 0.00 37 1015.3
20260831023412 85 156 9.6 12.2 0.00 0.00 0.00 37 1015.2
20260831022907 86 151 12.2 14.8 0.00 0.00 0.00 37 1015.1
20260831022406 86 156 7.8 12.2 0.00 0.00 0.00 37 1015.0
20260831021901 86 154 10.4 11.3 0.00 0.00 0.00 37 1015.0
20260831021400 86 163 8.7 13.0 0.00 0.00 0.00 36 1015.1
20260831020856 86 154 9.6 12.2 0.00 0.00 0.00 36 1015.0
20260831020355 86 156 10.4 12.2 0.00 0.00 0.00 36 1015.3
20260831015851 87 163 11.3 12.2 0.00 0.00 0.00 36 1014.9
20260831015347 87 158 9.6 11.3 0.00 0.00 0.00 36 1015.0
20260831014846 87 152 9.6 11.3 0.00 0.00 0.00 35 1015.1
20260831014341 87 158 7.8 11.3 0.00 0.00 0.00 35 1014.8
20260831013837 88 163 10.4 12.2 0.00 0.00 0.00 34 1014.8
20260831013332 88 171 7.8 11.3 0.00 0.00 0.00 34 1014.8
20260831012826 89 164 7.8 10.4 0.00 0.00 0.00 34 1014.9
20260831012322 89 156 9.6 11.3 0.00 0.00 0.00 33 1014.8
20260831011821 90 162 9.6 13.0 0.00 0.00 0.00 33 1014.8
20260831011316 89 168 6.1 11.3 0.00 0.00 0.00 33 1014.7
20260831010812 90 161 7.0 12.2 0.00 0.00 0.00 33 1014.6
20260831010306 91 161 7.0 14.8 0.00 0.00 0.00 32 1014.7
20260831005803 91 158 9.6 14.8 0.00 0.00 0.00 31 1014.7
20260831005258 92 164 8.7 13.9 0.00 0.00 0.00 31 1014.8
20260831004752 93 165 12.2 19.1 0.00 0.00 0.00 30 1014.5
20260831004249 93 165 11.3 15.6 0.00 0.00 0.00 30 1014.6
20260831003744 93 155 11.3 14.8 0.00 0.00 0.00 29 1014.6
20260831003240 94 172 12.2 14.8 0.00 0.00 0.00 29 1014.5
20260831002739 94 156 10.4 15.6 0.00 0.00 0.00 29 1014.5
20260831002238 95 162 19.1 19.1 0.00 0.00 0.00 28 1014.5
20260831001735 95 163 13.0 18.2 0.00 0.00 0.00 28 1014.5
20260831001230 95 175 13.0 19.1 0.00 0.00 0.00 28 1014.5
20260831000726 96 160 13.0 16.5 0.00 0.00 0.00 28 1014.5
20260831000221 96 178 13.0 16.5 0.00 0.00 0.00 27 1014.5
20260830235720 96 158 13.0 16.5 0.00 0.00 0.00 27 1014.5
20260830235215 97 187 9.6 16.5 0.00 0.00 0.00 27 1014.3
20260830234710 97 195 13.9 14.8 0.00 0.00 0.00 27 1014.7
20260830234206 98 182 7.0 13.0 0.00 0.00 0.00 27 1014.7
20260830233701 97 182 6.1 14.8 0.00 0.00 0.00 27 1014.6
20260830233157 98 158 13.9 18.2 0.00 0.00 0.00 26 1014.6
20260830232652 98 177 12.2 13.9 0.00 0.00 0.00 26 1014.7
20260830232149 98 157 10.4 15.6 0.00 0.00 0.00 26 1014.7
20260830231645 99 152 7.8 12.2 0.00 0.00 0.00 26 1014.6
20260830231144 98 173 13.0 19.1 0.00 0.00 0.00 26 1014.6
20260830230639 98 179 8.7 11.3 0.00 0.00 0.00 26 1014.6